When you browse on this site, cookies collect data to enhance your experience and personalize the content and advertising you see.
Visit our Privacy Policy to learn more. By continuing to use the site, you agree to this use of cookies and data.
  • In Hungary
  • List of Countries
  • For 7 days
  • Water Temperature
  • Weather Map
  • News
  • Weather Widgets
  • user-avatar
    Login

    Hourly Weather Janikow

    Today, 17 September, Tuesday

    Time Temperature Precipitation Wind Pressure Humidity
    00:00 +10°C° 0 mm 3 mps 746 mmHg 69%
    01:00 +10°C° 0 mm 2 mps 746 mmHg 68%
    02:00 +10°C° 0 mm 2 mps 746 mmHg 72%
    03:00 +10°C° 0 mm 2 mps 745 mmHg 75%
    04:00 +10°C° 0 mm 2 mps 745 mmHg 78%
    05:00 +10°C° 0 mm 3 mps 745 mmHg 76%
    06:00 +11°C° 0 mm 3 mps 745 mmHg 74%
    07:00 +11°C° 0 mm 4 mps 745 mmHg 71%
    08:00 +13°C° 0 mm 4 mps 745 mmHg 64%
    09:00 +14°C° 0 mm 5 mps 745 mmHg 57%
    10:00 +16°C° 0 mm 6 mps 745 mmHg 49%
    11:00 +16°C° 0 mm 6 mps 744 mmHg 50%
    12:00 +15°C° 0 mm 6 mps 743 mmHg 51%
    13:00 +15°C° 0 mm 7 mps 743 mmHg 51%
    14:00 +15°C° 0 mm 7 mps 742 mmHg 53%
    15:00 +15°C° 0 mm 7 mps 742 mmHg 55%
    16:00 +14°C° 0 mm 6 mps 741 mmHg 56%
    17:00 +14°C° 0 mm 6 mps 741 mmHg 58%
    18:00 +13°C° 0 mm 6 mps 741 mmHg 60%
    19:00 +13°C° 0 mm 5 mps 741 mmHg 62%
    20:00 +11°C° 0.7 mm 6 mps 741 mmHg 69%
    21:00 +10°C° 0.7 mm 6 mps 741 mmHg 76%
    22:00 +8°C° 0.7 mm 7 mps 741 mmHg 82%
    23:00 +8°C° 0.1 mm 7 mps 741 mmHg 81%

    Tomorrow, 18 September, Wednesday

    Time Temperature Precipitation Wind Pressure Humidity
    00:00 +6°C° 0.1 mm 7 mps 741 mmHg 81%
    01:00 +5°C° 0.1 mm 7 mps 742 mmHg 80%
    02:00 +5°C° 0 mm 7 mps 742 mmHg 80%
    03:00 +5°C° 0 mm 7 mps 742 mmHg 80%
    04:00 +5°C° 0 mm 8 mps 742 mmHg 80%
    05:00 +5°C° 0 mm 8 mps 743 mmHg 78%
    06:00 +6°C° 0 mm 9 mps 743 mmHg 76%
    07:00 +7°C° 0 mm 10 mps 744 mmHg 74%
    08:00 +7°C° 0 mm 10 mps 745 mmHg 70%
    09:00 +8°C° 0 mm 10 mps 746 mmHg 66%
    10:00 +10°C° 0 mm 9 mps 746 mmHg 62%
    11:00 +11°C° 0 mm 9 mps 747 mmHg 60%
    12:00 +11°C° 0 mm 9 mps 747 mmHg 57%
    13:00 +12°C° 0 mm 9 mps 747 mmHg 55%
    14:00 +12°C° 0 mm 8 mps 748 mmHg 55%
    15:00 +12°C° 0 mm 8 mps 748 mmHg 54%
    16:00 +12°C° 0 mm 7 mps 748 mmHg 54%
    17:00 +11°C° 0 mm 6 mps 748 mmHg 60%
    18:00 +10°C° 0 mm 5 mps 749 mmHg 66%
    19:00 +8°C° 0 mm 4 mps 749 mmHg 73%
    20:00 +8°C° 0 mm 4 mps 749 mmHg 74%
    21:00 +8°C° 0 mm 5 mps 750 mmHg 74%
    22:00 +7°C° 0 mm 5 mps 750 mmHg 75%
    23:00 +7°C° 0.2 mm 5 mps 750 mmHg 79%

    Day after tomorrow, 19 September, Thursday

    Time Temperature Precipitation Wind Pressure Humidity
    00:00 +6°C° 0.2 mm 4 mps 750 mmHg 82%
    01:00 +6°C° 0.2 mm 4 mps 751 mmHg 85%
    02:00 +6°C° 0.1 mm 4 mps 751 mmHg 84%
    03:00 +6°C° 0.1 mm 4 mps 751 mmHg 83%
    04:00 +7°C° 0.1 mm 3 mps 751 mmHg 82%
    05:00 +7°C° 0 mm 4 mps 751 mmHg 79%
    06:00 +7°C° 0 mm 4 mps 751 mmHg 75%
    07:00 +8°C° 0 mm 4 mps 751 mmHg 71%
    08:00 +10°C° 0 mm 4 mps 752 mmHg 65%
    09:00 +11°C° 0 mm 4 mps 752 mmHg 59%
    10:00 +12°C° 0 mm 5 mps 752 mmHg 53%
    11:00 +13°C° 0 mm 5 mps 752 mmHg 51%
    12:00 +14°C° 0 mm 5 mps 752 mmHg 49%
    13:00 +14°C° 0 mm 5 mps 752 mmHg 46%
    14:00 +14°C° 0.4 mm 5 mps 752 mmHg 51%
    15:00 +13°C° 0.4 mm 4 mps 752 mmHg 57%
    16:00 +13°C° 0.4 mm 4 mps 752 mmHg 62%
    17:00 +12°C° 0.4 mm 4 mps 752 mmHg 68%
    18:00 +10°C° 0.4 mm 3 mps 752 mmHg 74%
    19:00 +9°C° 0.4 mm 3 mps 752 mmHg 80%
    20:00 +8°C° 0 mm 3 mps 753 mmHg 81%
    21:00 +7°C° 0 mm 3 mps 753 mmHg 83%
    22:00 +7°C° 0 mm 3 mps 753 mmHg 84%
    23:00 +7°C° 0 mm 3 mps 753 mmHg 86%

    20 September, Friday

    Time Temperature Precipitation Wind Pressure Humidity
    00:00 +6°C° 0 mm 2 mps 754 mmHg 87%
    01:00 +6°C° 0 mm 2 mps 754 mmHg 88%
    02:00 +5°C° 0 mm 2 mps 754 mmHg 88%
    03:00 +5°C° 0 mm 2 mps 754 mmHg 88%
    04:00 +5°C° 0 mm 2 mps 754 mmHg 87%
    05:00 +6°C° 0 mm 2 mps 754 mmHg 84%
    06:00 +7°C° 0 mm 2 mps 754 mmHg 81%
    07:00 +7°C° 0 mm 2 mps 754 mmHg 78%
    08:00 +9°C° 0 mm 3 mps 754 mmHg 71%
    09:00 +11°C° 0 mm 3 mps 754 mmHg 63%
    10:00 +12°C° 0 mm 4 mps 755 mmHg 56%
    11:00 +13°C° 0.1 mm 4 mps 754 mmHg 54%
    12:00 +14°C° 0.1 mm 5 mps 754 mmHg 51%
    13:00 +14°C° 0.1 mm 5 mps 753 mmHg 49%
    14:00 +14°C° 0.1 mm 5 mps 753 mmHg 51%
    15:00 +14°C° 0.1 mm 4 mps 753 mmHg 53%
    16:00 +13°C° 0.1 mm 4 mps 753 mmHg 55%
    17:00 +12°C° 0 mm 3 mps 753 mmHg 61%
    18:00 +11°C° 0 mm 3 mps 754 mmHg 67%
    19:00 +9°C° 0 mm 2 mps 754 mmHg 73%
    20:00 +9°C° 0 mm 2 mps 754 mmHg 75%
    21:00 +9°C° 0 mm 2 mps 754 mmHg 77%
    22:00 +8°C° 0 mm 3 mps 754 mmHg 79%
    23:00 +8°C° 0 mm 2 mps 754 mmHg 81%

    21 September, Saturday

    Time Temperature Precipitation Wind Pressure Humidity
    00:00 +8°C° 0 mm 2 mps 754 mmHg 83%
    01:00 +8°C° 0 mm 2 mps 755 mmHg 85%
    02:00 +8°C° 0 mm 2 mps 755 mmHg 83%
    03:00 +8°C° 0 mm 2 mps 755 mmHg 82%
    04:00 +9°C° 0 mm 2 mps 755 mmHg 81%
    05:00 +9°C° 0.1 mm 2 mps 755 mmHg 82%
    06:00 +9°C° 0.1 mm 3 mps 755 mmHg 83%
    07:00 +10°C° 0.1 mm 3 mps 755 mmHg 84%
    08:00 +11°C° 0 mm 3 mps 755 mmHg 81%
    09:00 +12°C° 0 mm 3 mps 755 mmHg 78%
    10:00 +13°C° 0 mm 3 mps 756 mmHg 75%
    11:00 +14°C° 0.1 mm 3 mps 755 mmHg 72%
    12:00 +16°C° 0.1 mm 3 mps 755 mmHg 69%
    13:00 +16°C° 0.1 mm 3 mps 755 mmHg 66%
    14:00 +17°C° 0 mm 2 mps 755 mmHg 65%
    15:00 +17°C° 0 mm 2 mps 755 mmHg 65%
    16:00 +17°C° 0 mm 2 mps 755 mmHg 64%
    17:00 +15°C° 0 mm 1 mps 755 mmHg 70%
    18:00 +14°C° 0 mm 1 mps 755 mmHg 76%
    19:00 +11°C° 0 mm 0 mps 755 mmHg 82%
    20:00 +11°C° 0 mm 0 mps 755 mmHg 84%
    21:00 +12°C° 0 mm 1 mps 755 mmHg 85%
    22:00 +11°C° 0 mm 1 mps 756 mmHg 87%
    23:00 +11°C° 0 mm 1 mps 756 mmHg 88%

    22 September, Sunday

    Time Temperature Precipitation Wind Pressure Humidity
    00:00 +10°C° 0 mm 1 mps 756 mmHg 89%
    01:00 +10°C° 0 mm 1 mps 756 mmHg 90%
    02:00 +10°C° 0 mm 1 mps 756 mmHg 90%
    03:00 +10°C° 0 mm 1 mps 756 mmHg 91%
    04:00 +10°C° 0 mm 1 mps 756 mmHg 91%
    05:00 +10°C° 0 mm 1 mps 756 mmHg 88%
    06:00 +11°C° 0 mm 1 mps 756 mmHg 85%
    07:00 +12°C° 0 mm 1 mps 756 mmHg 82%
    08:00 +14°C° 0 mm 1 mps 756 mmHg 73%
    09:00 +16°C° 0 mm 1 mps 756 mmHg 65%
    10:00 +18°C° 0 mm 2 mps 756 mmHg 57%
    11:00 +19°C° 0 mm 2 mps 756 mmHg 54%
    12:00 +20°C° 0 mm 2 mps 756 mmHg 51%
    13:00 +21°C° 0 mm 2 mps 755 mmHg 47%
    14:00 +20°C° 0 mm 2 mps 755 mmHg 49%
    15:00 +20°C° 0 mm 2 mps 755 mmHg 50%
    16:00 +20°C° 0 mm 2 mps 755 mmHg 52%
    17:00 +18°C° 0 mm 2 mps 755 mmHg 58%
    18:00 +16°C° 0 mm 2 mps 755 mmHg 63%
    19:00 +14°C° 0 mm 3 mps 755 mmHg 69%
    20:00 +13°C° 0 mm 3 mps 755 mmHg 71%
    21:00 +12°C° 0 mm 3 mps 755 mmHg 73%
    22:00 +12°C° 0 mm 3 mps 755 mmHg 76%
    23:00 +11°C° 0 mm 3 mps 755 mmHg 76%
    Show more